Grado, Spain
Current Conditions -  °F | °C
As of 11:30 PM on Thursday 27 Nov 2014 (Local Time) from LEAS Reporting Station
Clear Clear  
Wind Chill: 55°   Ceiling: Unl
Heat Index: 55°   Visibility: 6mi
Dew Point: 45°   Wind: 10mph
Humidity: 67%   Direction: 120°ESE
Pressure: 29.03"   Gusts: 24mph
Location:  43.39°N, 6.07°W
Report Text: LEAS 272230Z 12009G21KT 080V160 CAVOK 13/07 Q0983 NOSIG
Loading
Personal Weather Stations






























Interactive Weather Map New forecast layout! Learn more

10-Day Weather Forecast

Advertisements
Track Severe Weather on mobile